Wind_Speed
19 19 21 22 23 22 22 22 21 22 22 24 24 24 25 23 20 18 16 17 18 18 19 19 19 18 18 18 17 17 16 15 15 14 14 14 13 13 13 14 14 13
20 20 21 22 22 22 22 20 19 21 22 23 24 24 25 24 22 20 17 16 16 17 17 19 19 19 19 18 17 17 18 17 16 15 14 14 13 13 13 13 14 13
20 21 21 22 22 22 22 20 18 19 21 22 23 23 24 24 23 21 19 17 16 16 17 18 20 21 20 19 18 18 18 18 17 15 15 14 14 13 13 13 13 13
21 22 22 22 22 22 22 20 18 19 20 21 22 22 23 24 23 22 21 20 18 17 17 17 19 21 22 22 21 20 19 18 16 15 14 14 14 13 13 14 14 13
21 22 23 22 21 22 22 21 20 20 20 20 21 22 23 23 23 22 22 21 19 18 18 17 18 20 21 22 22 22 21 18 16 15 14 14 13 14 14 14 14 13
20 22 23 22 21 22 23 21 20 21 21 21 21 22 22 22 22 21 20 20 19 19 19 18 18 18 19 21 21 22 21 19 16 15 15 14 13 14 14 14 14 14
20 23 24 23 21 22 22 21 21 22 22 22 22 22 22 22 21 20 19 19 19 19 19 19 18 18 19 20 21 21 20 19 17 16 16 15 14 14 14 14 14 14
21 22 25 24 22 22 22 21 22 23 23 23 23 23 22 22 22 21 20 19 19 20 19 19 19 19 20 21 21 20 19 18 17 17 17 16 15 15 14 14 15 15
21 23 24 24 23 22 22 22 22 22 23 22 22 22 22 22 22 21 20 20 20 20 19 19 19 19 20 21 21 20 18 17 16 16 16 16 16 15 14 15 16 16
22 24 24 24 23 23 24 23 22 22 22 22 20 20 20 20 21 20 20 21 21 21 20 20 19 19 20 21 21 20 18 16 16 16 16 16 16 15 15 15 16 16
22 24 25 25 24 24 25 24 23 22 21 21 20 19 19 19 19 19 19 20 22 22 21 21 20 19 20 20 20 19 18 16 16 16 16 17 17 16 16 16 16 16
23 24 25 25 25 25 25 25 24 23 22 21 21 20 20 19 19 19 20 20 21 21 21 21 20 20 20 20 19 19 18 17 16 16 16 17 17 17 17 17 17 16
22 24 25 25 25 25 25 25 24 24 23 23 22 21 20 20 20 21 22 21 21 21 21 21 20 20 20 20 20 19 17 17 17 17 17 18 18 18 17 17 17 17
19 22 23 25 25 25 25 25 25 24 23 23 23 23 22 21 21 22 23 23 22 22 21 20 20 20 20 20 19 18 17 17 17 18 18 18 19 19 17 16 16 16
18 19 21 22 24 25 25 26 26 25 23 23 23 24 24 23 22 22 23 24 23 22 21 20 21 21 20 19 18 18 18 18 18 18 18 18 20 20 18 16 16 16
17 19 19 20 22 23 24 25 25 25 24 23 22 23 23 24 24 23 23 24 23 22 22 21 22 22 21 19 19 18 18 18 18 18 18 18 20 20 19 17 16 17
17 18 19 20 21 22 23 23 24 24 24 24 23 23 23 23 24 25 24 24 24 23 22 23 23 23 22 21 20 19 19 19 19 19 19 18 19 20 20 19 18 18
19 20 21 22 23 23 23 23 23 24 24 25 25 24 23 24 25 26 26 25 25 24 24 24 24 24 23 22 21 21 21 21 21 20 20 20 20 20 20 19 19 19
22 23 23 23 23 23 22 22 22 22 23 24 24 23 23 24 25 27 28 27 26 26 25 25 26 25 24 24 23 22 22 22 22 22 22 22 22 22 21 21 20 20
23 24 24 23 24 23 22 22 22 22 22 23 23 23 22 23 24 25 27 28 28 27 27 27 27 27 26 26 26 24 23 23 23 23 23 23 23 22 22 22 22 22
23 24 24 24 25 25 25 24 24 23 23 24 24 24 24 24 24 24 26 27 29 29 29 29 29 28 27 27 27 27 26 25 25 25 26 25 24 23 23 23 24 25
22 23 24 25 26 27 27 27 26 26 25 25 26 27 27 26 26 26 26 26 28 29 30 31 31 29 28 28 27 27 27 27 27 27 27 27 27 26 25 24 25 26
19 21 23 25 27 28 30 30 30 29 28 27 27 28 29 29 29 29 28 28 28 29 30 32 32 31 30 29 28 27 27 28 29 29 29 29 28 27 26 25 25 26
16 18 20 23 25 27 29 30 31 31 31 30 29 29 30 30 31 31 31 30 30 30 31 33 34 33 32 31 30 29 29 29 29 30 30 30 30 28 27 26 25 25
13 15 17 19 21 23 25 27 28 29 30 30 29 29 29 30 31 33 34 34 34 33 33 34 36 35 34 33 32 31 30 30 30 31 32 31 31 30 29 27 26 25
14 14 15 16 17 19 21 22 24 25 26 26 27 27 28 30 32 34 36 37 37 38 38 38 38 38 36 35 34 33 31 30 31 32 32 31 31 31 30 29 28 26
Wind_Direction
218 215 213 212 211 213 211 207 208 211 209 205 203 201 199 198 200 204 207 208 210 212 213 214 215 217 219 220 223 227 229 231 234 236 236 237 242 247 252 256 259 262
216 213 209 208 210 212 209 206 208 210 207 203 203 202 201 203 207 209 210 210 211 214 216 217 219 220 222 223 226 230 231 233 235 238 240 240 242 246 252 257 260 261
214 210 206 206 209 210 207 207 211 210 207 204 203 202 203 206 212 215 216 216 216 218 219 220 221 222 224 225 228 231 231 230 232 237 242 242 245 249 255 259 260 261
211 208 206 205 206 207 206 208 209 205 204 204 202 201 203 207 213 217 219 221 221 220 221 221 221 222 224 225 230 234 233 230 230 236 241 244 248 252 256 257 256 257
210 208 205 204 203 204 205 207 206 204 202 202 200 200 203 207 212 215 219 222 221 220 219 219 219 221 223 225 230 234 235 233 232 236 241 247 252 254 255 253 252 253
210 207 203 202 201 202 204 205 207 207 204 201 201 203 205 206 208 212 217 219 220 219 219 218 218 219 222 225 229 232 234 234 234 236 241 246 251 252 251 249 251 253
208 205 202 201 201 201 203 205 208 209 207 205 205 206 207 207 208 211 214 217 219 220 220 220 220 221 222 225 228 231 233 234 235 236 239 244 247 248 248 250 251 252
206 203 202 202 202 202 204 206 207 208 209 209 208 206 206 207 209 211 213 216 219 221 222 223 224 223 222 224 227 231 233 235 236 236 238 243 246 248 249 250 251 251
205 202 202 204 205 205 206 207 207 207 208 210 209 206 206 208 210 212 214 217 220 221 222 224 225 225 224 226 229 232 235 238 240 241 242 246 248 251 251 250 251 251
206 203 204 207 208 208 207 207 207 207 207 210 212 213 215 215 214 215 217 219 221 222 223 224 225 225 225 228 230 232 235 238 242 244 247 250 252 253 253 251 251 251
207 205 206 207 209 208 207 208 208 208 210 215 217 219 223 223 222 223 224 224 223 223 223 224 225 225 225 226 228 231 235 238 241 245 249 252 254 254 253 252 252 252
210 208 208 209 209 209 209 210 211 212 214 219 222 223 225 228 231 233 233 231 228 226 226 226 227 228 228 230 232 235 239 242 244 247 251 254 254 253 252 251 252 253
214 213 213 213 213 213 214 216 218 219 220 222 225 226 227 230 234 235 235 234 231 229 229 230 233 234 235 237 238 239 243 247 249 251 254 254 253 251 249 249 251 252
219 219 219 218 218 219 220 222 224 226 227 228 230 231 231 233 235 236 236 235 234 233 233 234 236 237 237 238 237 238 242 247 250 252 252 252 250 247 245 246 248 249
222 224 225 225 225 225 226 227 228 229 231 234 235 236 236 236 237 238 238 236 236 237 237 238 239 238 237 237 236 238 242 246 248 249 250 251 248 244 242 244 246 246
228 226 227 228 230 230 231 231 232 234 236 238 239 241 242 241 240 239 237 235 235 238 240 241 241 240 239 240 240 242 246 249 249 248 250 252 250 245 242 243 245 247
238 233 229 228 230 232 233 235 237 239 242 244 245 245 244 244 242 238 235 234 237 241 244 244 243 242 244 246 247 248 250 252 251 251 251 254 253 248 245 245 249 252
236 233 229 225 225 227 230 233 237 240 243 245 247 246 244 244 242 239 236 237 241 245 246 245 244 244 247 251 252 253 255 256 256 254 252 252 253 251 250 252 254 258
234 232 231 228 227 227 230 233 237 239 241 241 242 242 244 245 244 243 241 240 243 246 248 247 245 245 247 251 253 254 256 257 258 257 256 254 254 254 255 256 258 261
239 240 240 237 233 231 234 238 242 245 244 241 239 239 241 244 246 246 245 244 244 246 248 249 247 246 248 250 252 253 254 256 257 258 257 257 258 258 258 259 261 264
244 244 244 244 241 239 239 239 242 245 245 243 241 241 243 245 247 248 248 248 248 249 249 250 248 248 250 253 254 254 254 256 257 257 256 256 257 259 260 261 262 265
244 245 245 246 248 248 248 245 244 245 247 245 243 242 243 245 246 247 247 248 250 251 252 252 251 250 252 255 256 257 257 257 257 256 255 255 255 257 259 261 262 263
245 246 246 246 248 250 251 251 251 251 252 251 249 246 245 244 245 246 247 249 251 252 253 253 252 251 252 255 256 258 259 258 258 256 255 255 256 256 258 261 263 263
250 250 249 248 249 250 252 253 254 255 256 257 256 254 252 249 247 247 248 249 251 251 253 254 253 252 251 253 254 255 258 259 259 259 258 258 258 257 257 260 263 265
253 253 252 250 252 253 254 255 255 256 257 257 256 256 255 253 251 249 249 250 251 252 253 254 254 253 253 254 253 252 253 256 258 259 259 259 259 257 256 259 262 263
251 250 250 250 251 252 253 254 255 254 254 255 254 254 254 253 251 250 250 250 251 252 253 254 254 254 254 256 256 252 250 251 255 258 257 257 256 255 254 256 258 260
Height
1532 1534 1535 1537 1539 1541 1543 1545 1546 1547 1549 1550 1552 1554 1556 1558 1560 1561 1563 1564 1565 1567 1568 1570 1571 1573 1574 1575 1577 1578 1579 1580 1581 1582 1583 1584 1584 1585 1586 1586 1586 1587
1531 1533 1535 1536 1538 1540 1542 1544 1545 1547 1548 1550 1552 1554 1556 1558 1560 1561 1562 1563 1565 1566 1567 1569 1570 1572 1573 1574 1576 1577 1578 1579 1581 1582 1582 1583 1583 1584 1584 1585 1585 1586
1530 1532 1534 1536 1537 1539 1541 1543 1545 1546 1548 1550 1551 1554 1556 1558 1559 1560 1562 1563 1564 1565 1566 1568 1569 1571 1572 1574 1575 1576 1577 1578 1580 1580 1581 1581 1582 1583 1583 1584 1584 1584
1529 1531 1533 1535 1537 1539 1541 1542 1544 1545 1547 1549 1551 1553 1555 1557 1558 1559 1561 1562 1563 1564 1566 1567 1568 1570 1571 1572 1574 1575 1576 1577 1579 1579 1580 1580 1581 1582 1582 1582 1583 1583
1529 1530 1532 1534 1536 1539 1540 1542 1543 1545 1547 1548 1550 1552 1554 1556 1557 1558 1560 1561 1562 1563 1565 1566 1567 1568 1570 1571 1572 1574 1575 1576 1577 1578 1578 1579 1580 1580 1581 1581 1582 1582
1528 1529 1531 1534 1536 1538 1540 1541 1543 1545 1546 1548 1550 1552 1553 1555 1556 1557 1559 1560 1561 1562 1563 1565 1566 1567 1568 1570 1571 1572 1573 1574 1576 1576 1577 1578 1578 1579 1579 1580 1580 1581
1527 1528 1530 1533 1535 1537 1539 1540 1542 1544 1546 1548 1549 1551 1553 1554 1555 1557 1558 1559 1560 1561 1562 1563 1565 1566 1567 1568 1570 1571 1572 1573 1574 1575 1575 1576 1577 1577 1578 1578 1579 1579
1526 1528 1530 1532 1534 1536 1538 1540 1542 1543 1545 1547 1549 1550 1552 1553 1555 1556 1557 1559 1559 1560 1561 1562 1563 1565 1566 1567 1568 1569 1570 1571 1572 1573 1574 1574 1575 1576 1576 1577 1577 1577
1525 1527 1529 1531 1533 1535 1537 1539 1541 1543 1544 1546 1548 1550 1551 1553 1554 1556 1557 1558 1559 1560 1560 1561 1562 1563 1565 1566 1567 1568 1569 1570 1570 1571 1572 1573 1573 1574 1575 1575 1576 1576
1524 1526 1528 1530 1532 1534 1536 1538 1540 1542 1544 1545 1547 1549 1550 1552 1553 1555 1556 1557 1558 1559 1559 1560 1561 1562 1563 1564 1565 1566 1567 1568 1569 1569 1570 1571 1571 1572 1573 1573 1574 1574
1523 1525 1527 1529 1531 1533 1535 1537 1539 1541 1543 1544 1546 1547 1549 1550 1552 1553 1554 1555 1556 1557 1558 1559 1560 1561 1562 1563 1564 1565 1566 1566 1567 1567 1568 1569 1570 1570 1571 1571 1572 1572
1522 1524 1526 1527 1530 1532 1534 1536 1537 1539 1541 1543 1544 1546 1547 1549 1550 1551 1552 1553 1555 1556 1557 1558 1559 1560 1560 1561 1562 1563 1564 1564 1565 1565 1566 1567 1568 1568 1569 1569 1569 1570
1521 1523 1525 1526 1528 1530 1532 1534 1536 1538 1539 1541 1543 1544 1545 1547 1548 1549 1551 1552 1553 1554 1555 1556 1557 1558 1559 1559 1560 1561 1562 1562 1563 1563 1564 1565 1565 1566 1566 1567 1567 1568
1520 1522 1523 1525 1527 1529 1531 1533 1534 1536 1537 1539 1541 1542 1543 1545 1546 1548 1549 1550 1551 1552 1553 1554 1555 1556 1556 1557 1558 1559 1559 1560 1561 1561 1562 1562 1563 1564 1564 1565 1565 1566
1519 1520 1522 1524 1525 1527 1529 1531 1532 1534 1536 1537 1539 1540 1541 1543 1544 1546 1547 1548 1549 1550 1551 1552 1553 1553 1554 1555 1556 1557 1557 1558 1558 1559 1559 1560 1561 1561 1562 1563 1563 1564
1518 1519 1520 1522 1523 1525 1527 1529 1530 1532 1534 1535 1536 1538 1539 1540 1542 1543 1544 1545 1547 1548 1549 1550 1550 1551 1552 1553 1554 1555 1555 1556 1556 1557 1557 1558 1558 1559 1560 1560 1561 1562
1516 1517 1518 1519 1521 1522 1524 1526 1528 1530 1531 1533 1534 1535 1537 1538 1539 1540 1541 1543 1544 1545 1546 1547 1548 1549 1550 1551 1552 1553 1553 1554 1554 1555 1555 1555 1556 1556 1557 1558 1559 1560
1513 1513 1514 1516 1517 1519 1521 1523 1525 1526 1528 1529 1531 1532 1534 1535 1536 1537 1538 1540 1541 1542 1543 1544 1545 1546 1547 1548 1549 1550 1551 1551 1552 1552 1552 1553 1553 1554 1555 1556 1557 1558
1508 1509 1511 1514 1515 1518 1520 1521 1522 1523 1525 1526 1527 1529 1530 1531 1533 1534 1535 1537 1538 1539 1540 1541 1542 1543 1545 1546 1547 1548 1548 1549 1549 1550 1550 1551 1551 1552 1553 1554 1554 1555
1505 1507 1510 1512 1514 1515 1517 1519 1520 1521 1523 1524 1525 1526 1527 1528 1529 1531 1532 1533 1535 1536 1537 1538 1539 1540 1542 1543 1544 1545 1546 1546 1547 1547 1547 1548 1548 1549 1550 1551 1552 1552
1503 1505 1507 1509 1510 1512 1514 1515 1517 1518 1520 1521 1523 1524 1525 1526 1527 1528 1529 1530 1532 1533 1534 1534 1535 1537 1539 1540 1541 1542 1543 1544 1544 1544 1544 1545 1545 1546 1547 1548 1548 1549
1501 1503 1504 1506 1507 1509 1510 1511 1513 1515 1516 1518 1519 1520 1522 1523 1524 1525 1525 1527 1528 1529 1530 1531 1532 1534 1535 1536 1537 1539 1540 1541 1541 1541 1542 1542 1542 1543 1544 1544 1545 1546
1500 1501 1502 1503 1504 1505 1506 1508 1509 1510 1512 1514 1516 1517 1518 1519 1520 1521 1522 1523 1524 1525 1526 1527 1528 1530 1531 1532 1534 1535 1536 1537 1537 1538 1538 1539 1539 1540 1541 1541 1542 1542
1499 1499 1500 1501 1502 1502 1503 1505 1506 1507 1509 1510 1512 1513 1514 1515 1517 1518 1519 1520 1520 1521 1522 1523 1524 1525 1527 1528 1530 1531 1532 1533 1534 1534 1535 1535 1536 1537 1538 1538 1539 1539
1497 1497 1498 1498 1499 1500 1501 1502 1503 1504 1505 1507 1508 1509 1510 1511 1512 1513 1514 1515 1516 1517 1518 1519 1519 1521 1523 1524 1525 1527 1528 1528 1529 1530 1531 1531 1533 1533 1534 1535 1536 1536
1494 1495 1495 1496 1497 1498 1499 1500 1500 1501 1502 1503 1504 1505 1505 1506 1507 1507 1508 1509 1511 1512 1513 1514 1515 1516 1518 1520 1521 1523 1524 1524 1525 1525 1526 1528 1529 1529 1530 1531 1532 1533